Weather History for KYKN - March, 2013

Change the Weather History Date:

Tuesday, March 5, 2013

  Actual Average Record
Temperature  
Mean Temperature 22 °F -  
Max Temperature 26 °F 39 °F 69 °F (1991)
Min Temperature 19 °F 18 °F -15 °F (1960)
Degree Days  
Heating Degree Days 42    
Moisture  
Dew Point 18 °F    
Average Humidity 77    
Maximum Humidity 93    
Minimum Humidity 69    
Precipitation  
Precipitation 0.00 in - - ()
Sea Level Pressure  
Sea Level Pressure 30.21 in    
Wind  
Wind Speed 25 mph (NW)    
Max Wind Speed 34 mph    
Max Gust Speed 44 mph    
Visibility 9 miles    
Events      
Averages and records for this station are not official NWS values.
T = Trace of Precipitation, MM = Missing Value Source: NWS Daily Summary

Daily Weather History Graph

Daily Weather History Graph

Search for Another Location

Airport or City:

Trip Planner

Search our weather history database for the weather conditions in past years. The results will help you decide how hot, cold, wet, or windy it might be!

Date:

Astronomy

Mar. 05, 2013 Rise Set
Actual Time 6:58 AM CST 6:24 PM CST
Civil Twilight 6:30 AM CST 6:52 PM CST
Nautical Twilight 5:57 AM CST 7:25 PM CST
Astronomical Twilight 5:24 AM CST 7:58 PM CST
Moon 2:18 AM CST (3/5) 11:58 AM CST (3/5)
Length of Visible Light 12h 22m
Length of Day
11h 25m
Last Quarter, 40% of the Moon is Illuminated
Mar 5
Last Quarter
Mar 11
New
Mar 19
First Quarter
Mar 27
Full
Apr 2
Last Quarter

Hourly Weather History & Observations

Time (CST) Temp. Windchill Dew Point Humidity Pressure Visibility Wind Dir Wind Speed Gust Speed Precip Events Conditions
12:15 AM 26.6 °F 12.4 °F 21.2 °F 80% 30.00 in 9.0 mi West 21.9 mph 32.2 mph N/A   Scattered Clouds
1:35 AM 24.8 °F 9.3 °F 17.6 °F 74% 30.00 in 10.0 mi West 24.2 mph 31.1 mph N/A   Overcast
1:55 AM 24.8 °F 9.0 °F 17.6 °F 74% 30.00 in 10.0 mi West 25.3 mph 29.9 mph N/A   Overcast
2:15 AM 24.8 °F 9.0 °F 17.6 °F 74% 30.00 in 10.0 mi West 25.3 mph 34.5 mph N/A   Overcast
2:35 AM 24.8 °F 10.0 °F 17.6 °F 74% 30.00 in 10.0 mi West 21.9 mph 29.9 mph N/A   Overcast
2:55 AM 24.8 °F 10.0 °F 17.6 °F 74% 30.00 in 10.0 mi West 21.9 mph 31.1 mph N/A   Overcast
3:15 AM 24.8 °F 8.4 °F 19.4 °F 80% 30.00 in 10.0 mi West 27.6 mph 33.4 mph N/A   Overcast
3:35 AM 24.8 °F 10.0 °F 19.4 °F 80% 29.99 in 9.0 mi West 21.9 mph 31.1 mph N/A   Overcast
3:55 AM 24.8 °F 8.7 °F 19.4 °F 80% 29.99 in 8.0 mi West 26.5 mph 36.8 mph N/A   Overcast
4:15 AM 24.8 °F 9.6 °F 19.4 °F 80% 29.99 in 10.0 mi West 23.0 mph 35.7 mph N/A   Overcast
4:35 AM 24.8 °F 8.7 °F 19.4 °F 80% 29.99 in 10.0 mi West 26.5 mph 39.1 mph N/A   Overcast
4:55 AM 26.6 °F 9.6 °F 19.4 °F 74% 29.99 in 10.0 mi West 33.4 mph 39.1 mph N/A   Overcast
5:15 AM 26.6 °F 10.6 °F 21.2 °F 80% 30.00 in 5.0 mi WNW 28.8 mph 35.7 mph N/A   Overcast
5:35 AM 26.6 °F 10.3 °F 21.2 °F 80% 30.01 in 8.0 mi WNW 29.9 mph 40.3 mph N/A   Overcast
6:15 AM 26.6 °F 9.8 °F 21.2 °F 80% 30.03 in 6.0 mi WNW 32.2 mph 41.4 mph N/A   Overcast
6:35 AM 26.6 °F 9.8 °F 24.8 °F 93% 30.05 in 4.0 mi WNW 32.2 mph 41.4 mph N/A   Overcast
7:15 AM 26.6 °F 10.6 °F 21.2 °F 80% 30.07 in 4.0 mi WNW 28.8 mph 39.1 mph N/A   Overcast
7:35 AM 26.6 °F 9.3 °F 21.2 °F 80% 30.08 in 7.0 mi NW 34.5 mph 42.6 mph N/A   Overcast
7:55 AM 26.6 °F 10.6 °F 21.2 °F 80% 30.10 in 2.5 mi WNW 28.8 mph 36.8 mph N/A   Overcast
8:15 AM 26.6 °F 10.0 °F 21.2 °F 80% 30.11 in 4.0 mi WNW 31.1 mph 39.1 mph N/A   Overcast
8:35 AM 24.8 °F 7.9 °F 21.2 °F 86% 30.12 in 4.0 mi NW 29.9 mph 38.0 mph N/A   Overcast
8:55 AM 24.8 °F 8.1 °F 19.4 °F 80% 30.14 in 5.0 mi NW 28.8 mph 38.0 mph N/A   Overcast
9:15 AM 24.8 °F 8.1 °F 17.6 °F 74% 30.15 in 3.0 mi NW 28.8 mph 41.4 mph N/A   Overcast
9:35 AM 26.6 °F 10.6 °F 19.4 °F 74% 30.16 in 7.0 mi NW 28.8 mph 43.7 mph N/A   Overcast
9:55 AM 24.8 °F 7.6 °F 19.4 °F 80% 30.17 in 10.0 mi NW 31.1 mph 39.1 mph N/A   Overcast
10:15 AM 24.8 °F 7.3 °F 19.4 °F 80% 30.18 in 10.0 mi NW 32.2 mph 39.1 mph N/A   Overcast
10:35 AM 26.6 °F 10.0 °F 19.4 °F 74% 30.19 in 10.0 mi NW 31.1 mph 39.1 mph N/A   Overcast
10:55 AM 26.6 °F 10.6 °F 19.4 °F 74% 30.20 in 10.0 mi NW 28.8 mph 38.0 mph N/A   Overcast
11:15 AM 24.8 °F 7.6 °F 19.4 °F 80% 30.21 in 9.0 mi NW 31.1 mph 36.8 mph N/A   Overcast
11:35 AM 26.6 °F 10.6 °F 19.4 °F 74% 30.23 in 6.0 mi NW 28.8 mph 36.8 mph N/A   Overcast
11:55 AM 24.8 °F 7.9 °F 17.6 °F 74% 30.23 in 7.0 mi NW 29.9 mph 39.1 mph N/A   Overcast
12:15 PM 24.8 °F 7.6 °F 17.6 °F 74% 30.24 in 7.0 mi NW 31.1 mph 38.0 mph N/A   Overcast
12:35 PM 26.6 °F 9.8 °F 17.6 °F 69% 30.24 in 10.0 mi NW 32.2 mph 36.8 mph N/A   Overcast
12:55 PM 26.6 °F 10.0 °F 17.6 °F 69% 30.25 in 10.0 mi NW 31.1 mph 41.4 mph N/A   Overcast
1:15 PM 26.6 °F 10.0 °F 19.4 °F 74% 30.25 in 10.0 mi NW 31.1 mph - N/A   Overcast
1:35 PM 26.6 °F 12.0 °F 17.6 °F 69% 30.26 in 10.0 mi NW 23.0 mph 38.0 mph N/A   Overcast
1:55 PM 26.6 °F 11.1 °F 17.6 °F 69% 30.26 in 10.0 mi NW 26.5 mph 36.8 mph N/A   Overcast
2:15 PM 26.6 °F 11.4 °F 19.4 °F 74% 30.26 in 10.0 mi NW 25.3 mph 33.4 mph N/A   Overcast
2:35 PM 26.6 °F 11.1 °F 19.4 °F 74% 30.26 in 10.0 mi NW 26.5 mph 32.2 mph N/A   Overcast
2:55 PM 26.6 °F 11.7 °F 17.6 °F 69% 30.27 in 10.0 mi NW 24.2 mph 35.7 mph N/A   Overcast
3:15 PM 26.6 °F 11.7 °F 17.6 °F 69% 30.28 in 10.0 mi WNW 24.2 mph 29.9 mph N/A   Overcast
3:35 PM 26.6 °F 12.0 °F 17.6 °F 69% 30.28 in 10.0 mi WNW 23.0 mph 29.9 mph N/A   Overcast
3:55 PM 26.6 °F 11.4 °F 19.4 °F 74% 30.29 in 10.0 mi NW 25.3 mph - N/A   Overcast
4:15 PM 26.6 °F 11.7 °F 17.6 °F 69% 30.30 in 10.0 mi NW 24.2 mph 27.6 mph N/A   Overcast
4:35 PM 24.8 °F 9.6 °F 17.6 °F 74% 30.32 in 10.0 mi NW 23.0 mph 26.5 mph N/A   Overcast
4:55 PM 24.8 °F 10.0 °F 17.6 °F 74% 30.33 in 10.0 mi NW 21.9 mph 26.5 mph N/A   Overcast
5:15 PM 24.8 °F 10.0 °F 17.6 °F 74% 30.33 in 10.0 mi NW 21.9 mph 28.8 mph N/A   Overcast
5:35 PM 24.8 °F 10.0 °F 17.6 °F 74% 30.32 in 10.0 mi NNW 21.9 mph 26.5 mph N/A   Overcast
5:55 PM 24.8 °F 11.5 °F 15.8 °F 69% 30.33 in 10.0 mi NW 17.3 mph 25.3 mph N/A   Overcast
6:15 PM 24.8 °F 11.9 °F 17.6 °F 74% 30.34 in 10.0 mi NW 16.1 mph 21.9 mph N/A   Overcast
6:35 PM 23.0 °F 8.7 °F 15.8 °F 74% 30.34 in 10.0 mi NW 18.4 mph 24.2 mph N/A   Overcast
6:55 PM 23.0 °F 10.1 °F 15.8 °F 74% 30.34 in 10.0 mi NNW 15.0 mph - N/A   Overcast
7:15 PM 23.0 °F 7.2 °F 15.8 °F 74% 30.35 in 10.0 mi NNW 23.0 mph - N/A   Overcast
7:35 PM 21.2 °F 7.3 °F 15.8 °F 80% 30.36 in 10.0 mi NNW 16.1 mph 25.3 mph N/A   Overcast
7:55 PM 21.2 °F 6.8 °F 15.8 °F 80% 30.36 in 10.0 mi NW 17.3 mph 25.3 mph N/A   Overcast
8:15 PM 21.2 °F 6.8 °F 15.8 °F 80% 30.36 in 10.0 mi NW 17.3 mph 20.7 mph N/A   Overcast
8:35 PM 21.2 °F 8.3 °F 17.6 °F 86% 30.36 in 10.0 mi NW 13.8 mph 19.6 mph N/A   Overcast
8:55 PM 21.2 °F 8.3 °F 17.6 °F 86% 30.36 in 10.0 mi NW 13.8 mph 18.4 mph N/A   Overcast
9:15 PM 21.2 °F 7.8 °F 15.8 °F 80% 30.37 in 10.0 mi NW 15.0 mph - N/A   Overcast
9:35 PM 21.2 °F 8.9 °F 15.8 °F 80% 30.37 in 10.0 mi NW 12.7 mph - N/A   Overcast
9:55 PM 21.2 °F 8.9 °F 17.6 °F 86% 30.38 in 10.0 mi NW 12.7 mph - N/A   Overcast
10:15 PM 21.2 °F 10.1 °F 17.6 °F 86% 30.38 in 10.0 mi NW 10.4 mph - N/A   Overcast
10:35 PM 21.2 °F 9.5 °F 15.8 °F 80% 30.38 in 10.0 mi NW 11.5 mph - N/A   Overcast
10:55 PM 19.4 °F 6.6 °F 15.8 °F 86% 30.39 in 10.0 mi WNW 12.7 mph - N/A   Overcast
11:15 PM 19.4 °F 7.9 °F 15.8 °F 86% 30.39 in 10.0 mi NNW 10.4 mph - N/A   Overcast
11:35 PM 21.2 °F 8.9 °F 15.8 °F 80% 30.40 in 10.0 mi NNW 12.7 mph - N/A   Overcast
11:55 PM 19.4 °F 6.6 °F 15.8 °F 86% 30.40 in 10.0 mi NNW 12.7 mph - N/A   Overcast